TIBA-1

Last updated on Oct. 26, 2020, 5:52 a.m. UTC

1 44800U 19080A   20299.88782083  .00000143  00000-0  00000-0 0  9998
2 44800   0.0581   3.2735 0002110 197.4184 189.1582  1.00270777  3390
UTC
Height (km)
Latitude
Longitude
Inclination
Orbital Period
UTC large
Height (km)
Speed (km/s)
/
Latitude / Longitude
Inclination (degrees)
Orbital Period (minutes)
Azimuth
Elevation
Range (km)
Doppler Factor
iOS Compass Heading
iOS Angle

Next 30 passes for location: Hong Kong

Rise time Rise Azimuth (degrees) Set time Set Azimuth (degrees) Duration Max altitude (degrees)

No matching passes for this satellites